Time,TemperatureF,DewpointF,PressureIn,WindDirection,WindDirectionDegrees,WindSpeedMPH,WindSpeedGustMPH,Humidity,HourlyPrecipIn,Conditions,Clouds,dailyrainin,SoftwareType,DateUTC
2013-06-04 00:00:00,55.2,47.8,29.76,WSW,248,4.0,4.0,76,0.00,,,0.00,VWS V14.01,2013-06-04 07:00:00,
2013-06-04 00:05:00,55.2,47.8,29.76,WSW,248,2.2,5.4,76,0.00,,,0.00,VWS V14.01,2013-06-04 07:05:00,
2013-06-04 00:10:00,55.2,47.8,29.76,NW,315,3.6,3.6,76,0.00,,,0.00,VWS V14.01,2013-06-04 07:10:00,
2013-06-04 00:15:00,55.0,47.6,29.76,East,90,0.0,5.8,76,0.00,,,0.00,VWS V14.01,2013-06-04 07:15:00,
2013-06-04 00:20:00,55.0,47.6,29.76,SSW,202,3.6,5.8,76,0.00,,,0.00,VWS V14.01,2013-06-04 07:20:00,
2013-06-04 00:25:00,55.0,47.6,29.76,SSE,158,4.0,5.8,76,0.00,,,0.00,VWS V14.01,2013-06-04 07:25:00,
2013-06-04 00:30:00,55.2,47.8,29.76,SSW,202,3.6,8.1,76,0.00,,,0.00,VWS V14.01,2013-06-04 07:30:00,
2013-06-04 00:36:00,55.2,47.5,29.76,SSE,158,2.7,3.6,75,0.00,,,0.00,VWS V14.01,2013-06-04 07:36:00,
2013-06-04 00:41:00,55.2,47.5,29.76,SW,225,4.0,4.0,75,0.00,,,0.00,VWS V14.01,2013-06-04 07:41:00,
2013-06-04 00:46:00,55.2,47.5,29.76,ESE,112,3.6,4.0,75,0.00,,,0.00,VWS V14.01,2013-06-04 07:46:00,
2013-06-04 00:51:00,55.2,47.5,29.76,SW,225,3.1,5.4,75,0.00,,,0.00,VWS V14.01,2013-06-04 07:51:00,
2013-06-04 00:56:00,55.4,47.3,29.76,SSW,202,2.7,3.6,74,0.00,,,0.00,VWS V14.01,2013-06-04 07:56:00,
2013-06-04 01:02:00,55.2,47.1,29.76,NW,315,0.0,0.0,74,0.00,,,0.00,VWS V14.01,2013-06-04 08:02:00,
2013-06-04 01:07:00,55.4,47.3,29.76,SSW,202,2.7,2.7,74,0.00,,,0.00,VWS V14.01,2013-06-04 08:07:00,
2013-06-04 01:12:00,55.4,46.9,29.76,SSW,202,5.4,5.4,73,0.00,,,0.00,VWS V14.01,2013-06-04 08:12:00,
2013-06-04 01:17:00,55.4,46.9,29.76,SSW,202,4.9,5.8,73,0.00,,,0.00,VWS V14.01,2013-06-04 08:17:00,
2013-06-04 01:22:00,55.2,47.1,29.76,NE,45,3.1,4.0,74,0.00,,,0.00,VWS V14.01,2013-06-04 08:22:00,
2013-06-04 01:27:00,55.2,47.1,29.76,ENE,68,0.0,2.2,74,0.00,,,0.00,VWS V14.01,2013-06-04 08:27:00,
2013-06-04 01:33:00,55.2,47.1,29.76,SSE,158,5.8,5.8,74,0.00,,,0.00,VWS V14.01,2013-06-04 08:33:00,
2013-06-04 01:38:00,55.2,47.1,29.76,North,0,0.0,2.7,74,0.00,,,0.00,VWS V14.01,2013-06-04 08:38:00,
2013-06-04 01:43:00,55.2,46.7,29.76,NE,45,0.0,0.0,73,0.00,,,0.00,VWS V14.01,2013-06-04 08:43:00,
2013-06-04 01:48:00,55.4,46.9,29.76,West,270,3.6,3.6,73,0.00,,,0.00,VWS V14.01,2013-06-04 08:48:00,
2013-06-04 01:53:00,55.4,46.9,29.76,SSW,202,2.7,2.7,73,0.00,,,0.00,VWS V14.01,2013-06-04 08:53:00,
2013-06-04 01:59:00,55.4,46.9,29.76,SSW,202,2.7,3.6,73,0.00,,,0.00,VWS V14.01,2013-06-04 08:59:00,
2013-06-04 02:04:00,55.2,46.7,29.76,WSW,248,3.1,4.0,73,0.00,,,0.00,VWS V14.01,2013-06-04 09:04:00,
2013-06-04 02:09:00,55.2,46.7,29.76,SSE,158,2.2,3.6,73,0.00,,,0.00,VWS V14.01,2013-06-04 09:09:00,
2013-06-04 02:14:00,55.2,46.7,29.76,SSE,158,0.0,2.7,73,0.00,,,0.00,VWS V14.01,2013-06-04 09:14:00,
2013-06-04 02:19:00,55.2,46.7,29.76,South,180,0.0,2.2,73,0.00,,,0.00,VWS V14.01,2013-06-04 09:19:00,
2013-06-04 02:24:00,55.2,46.7,29.76,SSE,158,3.1,4.0,73,0.00,,,0.00,VWS V14.01,2013-06-04 09:24:00,
2013-06-04 02:29:00,55.2,46.7,29.76,WNW,292,0.0,3.1,73,0.00,,,0.00,VWS V14.01,2013-06-04 09:29:00,
2013-06-04 02:34:00,55.2,46.7,29.76,WSW,248,2.2,3.1,73,0.00,,,0.00,VWS V14.01,2013-06-04 09:34:00,
2013-06-04 02:40:00,55.2,46.7,29.76,SSW,202,3.1,4.0,73,0.00,,,0.00,VWS V14.01,2013-06-04 09:40:00,
2013-06-04 02:45:00,55.0,46.5,29.76,SW,225,0.0,3.6,73,0.00,,,0.00,VWS V14.01,2013-06-04 09:45:00,
2013-06-04 02:50:00,55.2,47.1,29.76,SSW,202,0.0,3.1,74,0.00,,,0.00,VWS V14.01,2013-06-04 09:50:00,
2013-06-04 02:56:00,55.2,47.1,29.76,SSW,202,2.7,2.7,74,0.00,,,0.00,VWS V14.01,2013-06-04 09:56:00,
2013-06-04 03:01:00,55.2,47.1,29.76,SSE,158,3.1,4.0,74,0.00,,,0.00,VWS V14.01,2013-06-04 10:01:00,
2013-06-04 03:06:00,55.2,47.1,29.76,SW,225,0.0,3.6,74,0.00,,,0.00,VWS V14.01,2013-06-04 10:06:00,
2013-06-04 03:11:00,55.2,47.1,29.76,SSW,202,3.1,3.1,74,0.00,,,0.00,VWS V14.01,2013-06-04 10:11:00,
2013-06-04 03:16:00,55.4,46.9,29.76,South,180,2.7,3.6,73,0.00,,,0.00,VWS V14.01,2013-06-04 10:16:00,
2013-06-04 03:21:00,55.4,46.9,29.76,WSW,248,3.1,3.1,73,0.00,,,0.00,VWS V14.01,2013-06-04 10:21:00,
2013-06-04 03:26:00,55.4,46.9,29.76,ENE,68,0.0,2.7,73,0.00,,,0.00,VWS V14.01,2013-06-04 10:26:00,
2013-06-04 03:31:00,55.4,46.9,29.76,WSW,248,0.0,4.0,73,0.00,,,0.00,VWS V14.01,2013-06-04 10:31:00,
2013-06-04 03:36:00,55.4,46.9,29.76,SSW,202,2.2,3.6,73,0.00,,,0.00,VWS V14.01,2013-06-04 10:36:00,
2013-06-04 03:41:00,55.4,46.9,29.76,SSE,158,5.4,5.4,73,0.00,,,0.00,VWS V14.01,2013-06-04 10:41:00,
2013-06-04 03:46:00,55.2,46.7,29.76,SSW,202,2.7,2.7,73,0.00,,,0.00,VWS V14.01,2013-06-04 10:46:00,
2013-06-04 03:52:00,55.2,46.7,29.76,NE,45,0.0,4.0,73,0.00,,,0.00,VWS V14.01,2013-06-04 10:52:00,
2013-06-04 03:57:00,55.4,46.9,29.76,SSW,202,2.7,3.1,73,0.00,,,0.00,VWS V14.01,2013-06-04 10:57:00,
2013-06-04 04:02:00,55.6,47.1,29.76,SSW,202,4.0,4.0,73,0.00,,,0.00,VWS V14.01,2013-06-04 11:02:00,
2013-06-04 04:07:00,55.4,46.5,29.76,South,180,4.5,4.5,72,0.00,,,0.00,VWS V14.01,2013-06-04 11:07:00,
2013-06-04 04:12:00,55.4,46.5,29.76,South,180,0.0,3.1,72,0.00,,,0.00,VWS V14.01,2013-06-04 11:12:00,
2013-06-04 04:17:00,55.4,46.5,29.76,SSW,202,0.0,3.6,72,0.00,,,0.00,VWS V14.01,2013-06-04 11:17:00,
2013-06-04 04:22:00,55.4,46.5,29.76,SSE,158,0.0,4.0,72,0.00,,,0.00,VWS V14.01,2013-06-04 11:22:00,
2013-06-04 04:27:00,55.4,46.5,29.76,SSE,158,3.6,3.6,72,0.00,,,0.00,VWS V14.01,2013-06-04 11:27:00,
2013-06-04 04:33:00,55.4,46.5,29.76,SSE,158,0.0,0.0,72,0.00,,,0.00,VWS V14.01,2013-06-04 11:33:00,
2013-06-04 04:38:00,55.4,46.5,29.76,SSE,158,0.0,2.7,72,0.00,,,0.00,VWS V14.01,2013-06-04 11:38:00,
2013-06-04 04:43:00,55.4,46.5,29.76,South,180,3.1,3.6,72,0.00,,,0.00,VWS V14.01,2013-06-04 11:43:00,
2013-06-04 04:48:00,55.4,46.5,29.76,SSE,158,0.0,3.6,72,0.00,,,0.00,VWS V14.01,2013-06-04 11:48:00,
2013-06-04 04:53:00,55.4,46.5,29.76,SW,225,2.7,2.7,72,0.00,,,0.00,VWS V14.01,2013-06-04 11:53:00,
2013-06-04 04:59:00,55.4,46.5,29.76,South,180,2.2,3.1,72,0.00,,,0.00,VWS V14.01,2013-06-04 11:59:00,
2013-06-04 05:04:00,55.4,46.5,29.76,SSW,202,3.1,3.1,72,0.00,,,0.00,VWS V14.01,2013-06-04 12:04:00,
2013-06-04 05:09:00,55.4,46.5,29.76,South,180,4.0,4.5,72,0.00,,,0.00,VWS V14.01,2013-06-04 12:09:00,
2013-06-04 05:14:00,55.2,46.7,29.76,South,180,3.6,5.8,73,0.00,,,0.00,VWS V14.01,2013-06-04 12:14:00,
2013-06-04 05:19:00,55.4,46.5,29.76,SW,225,2.2,2.2,72,0.00,,,0.00,VWS V14.01,2013-06-04 12:19:00,
2013-06-04 05:25:00,55.4,46.5,29.76,SSE,158,2.7,2.7,72,0.00,,,0.00,VWS V14.01,2013-06-04 12:25:00,
2013-06-04 05:30:00,55.4,46.5,29.76,ENE,68,2.7,2.7,72,0.00,,,0.00,VWS V14.01,2013-06-04 12:30:00,
2013-06-04 05:35:00,55.4,46.5,29.76,SSE,158,3.1,4.9,72,0.00,,,0.00,VWS V14.01,2013-06-04 12:35:00,
2013-06-04 05:40:00,55.6,47.1,29.76,East,90,2.7,3.6,73,0.00,,,0.00,VWS V14.01,2013-06-04 12:40:00,
2013-06-04 05:45:00,55.6,47.1,29.76,SSE,158,3.6,5.4,73,0.00,,,0.00,VWS V14.01,2013-06-04 12:45:00,
2013-06-04 05:50:00,55.4,46.5,29.76,SSE,158,3.6,3.6,72,0.00,,,0.00,VWS V14.01,2013-06-04 12:50:00,
2013-06-04 05:56:00,55.6,47.1,29.76,SSW,202,0.0,3.6,73,0.00,,,0.00,VWS V14.01,2013-06-04 12:56:00,
2013-06-04 06:01:00,55.6,47.1,29.76,East,90,0.0,3.1,73,0.00,,,0.00,VWS V14.01,2013-06-04 13:01:00,
2013-06-04 06:06:00,55.6,47.1,29.76,SSE,158,2.7,2.7,73,0.00,,,0.00,VWS V14.01,2013-06-04 13:06:00,
2013-06-04 06:11:00,55.6,46.7,29.79,NE,45,0.0,0.0,72,0.00,,,0.00,VWS V14.01,2013-06-04 13:11:00,
2013-06-04 06:16:00,55.6,46.7,29.79,SSW,202,2.2,2.2,72,0.00,,,0.00,VWS V14.01,2013-06-04 13:16:00,
2013-06-04 06:22:00,55.6,47.1,29.79,WSW,248,2.7,3.6,73,0.00,,,0.00,VWS V14.01,2013-06-04 13:22:00,
2013-06-04 06:27:00,55.6,47.1,29.79,SSE,158,4.0,4.0,73,0.00,,,0.00,VWS V14.01,2013-06-04 13:27:00,
2013-06-04 06:32:00,55.4,46.9,29.79,SW,225,4.9,4.9,73,0.00,,,0.00,VWS V14.01,2013-06-04 13:32:00,
2013-06-04 06:37:00,55.2,47.1,29.79,South,180,2.2,4.9,74,0.00,,,0.00,VWS V14.01,2013-06-04 13:37:00,
2013-06-04 06:42:00,55.2,47.1,29.79,SW,225,0.0,3.1,74,0.00,,,0.00,VWS V14.01,2013-06-04 13:42:00,
2013-06-04 06:48:00,55.2,47.1,29.79,SSW,202,0.0,2.7,74,0.00,,,0.00,VWS V14.01,2013-06-04 13:48:00,
2013-06-04 06:53:00,55.2,47.1,29.79,South,180,4.9,4.9,74,0.00,,,0.00,VWS V14.01,2013-06-04 13:53:00,
2013-06-04 06:58:00,55.4,46.9,29.79,SW,225,0.0,3.6,73,0.00,,,0.00,VWS V14.01,2013-06-04 13:58:00,
2013-06-04 07:03:00,55.6,47.1,29.79,South,180,5.4,5.4,73,0.00,,,0.00,VWS V14.01,2013-06-04 14:03:00,
2013-06-04 07:08:00,55.6,47.1,29.79,NNE,22,2.2,2.7,73,0.00,,,0.00,VWS V14.01,2013-06-04 14:08:00,
2013-06-04 07:13:00,55.8,47.2,29.79,SSW,202,3.1,5.8,73,0.00,,,0.00,VWS V14.01,2013-06-04 14:13:00,
2013-06-04 07:18:00,55.9,47.1,29.79,SW,225,2.7,4.5,72,0.00,,,0.00,VWS V14.01,2013-06-04 14:18:00,
2013-06-04 07:24:00,55.9,47.1,29.79,SSE,158,3.6,3.6,72,0.00,,,0.00,VWS V14.01,2013-06-04 14:24:00,
2013-06-04 07:29:00,56.1,47.2,29.79,SSW,202,3.1,3.1,72,0.00,,,0.00,VWS V14.01,2013-06-04 14:29:00,
2013-06-04 07:34:00,55.9,46.7,29.79,SSE,158,4.0,4.0,71,0.00,,,0.00,VWS V14.01,2013-06-04 14:34:00,
2013-06-04 07:40:00,55.8,46.5,29.82,SSW,202,7.6,7.6,71,0.00,,,0.00,VWS V14.01,2013-06-04 14:40:00,
2013-06-04 07:45:00,55.8,46.9,29.82,SSE,158,8.1,8.1,72,0.00,,,0.00,VWS V14.01,2013-06-04 14:45:00,
2013-06-04 07:50:00,55.8,46.9,29.82,SSW,202,6.3,6.3,72,0.00,,,0.00,VWS V14.01,2013-06-04 14:50:00,
2013-06-04 07:55:00,55.9,47.1,29.79,ESE,112,5.8,5.8,72,0.00,,,0.00,VWS V14.01,2013-06-04 14:55:00,
2013-06-04 08:00:00,55.8,46.5,29.79,SSW,202,8.3,8.3,71,0.00,,,0.00,VWS V14.01,2013-06-04 15:00:00,
2013-06-04 08:06:00,55.9,46.7,29.79,South,180,7.6,7.6,71,0.00,,,0.00,VWS V14.01,2013-06-04 15:06:00,
2013-06-04 08:11:00,55.9,46.7,29.82,SSW,202,4.0,7.2,71,0.00,,,0.00,VWS V14.01,2013-06-04 15:11:00,
2013-06-04 08:16:00,55.9,46.7,29.82,South,180,4.0,8.1,71,0.00,,,0.00,VWS V14.01,2013-06-04 15:16:00,
2013-06-04 08:21:00,56.1,46.9,29.82,WNW,292,2.7,2.7,71,0.00,,,0.00,VWS V14.01,2013-06-04 15:21:00,
2013-06-04 08:27:00,56.5,47.2,29.82,SSW,202,4.0,4.0,71,0.00,,,0.00,VWS V14.01,2013-06-04 15:27:00,
2013-06-04 08:32:00,56.7,47.0,29.82,NNW,338,0.0,3.6,70,0.00,,,0.00,VWS V14.01,2013-06-04 15:32:00,
2013-06-04 08:38:00,56.7,47.0,29.82,SSE,158,3.1,4.0,70,0.00,,,0.00,VWS V14.01,2013-06-04 15:38:00,
2013-06-04 08:43:00,56.7,47.0,29.82,SSW,202,7.2,8.1,70,0.00,,,0.00,VWS V14.01,2013-06-04 15:43:00,
2013-06-04 08:48:00,56.5,47.2,29.82,WNW,292,4.0,4.0,71,0.00,,,0.00,VWS V14.01,2013-06-04 15:48:00,
2013-06-04 08:54:00,56.8,47.5,29.82,ESE,112,0.0,2.7,71,0.00,,,0.00,VWS V14.01,2013-06-04 15:54:00,
2013-06-04 08:59:00,56.3,46.7,29.82,SSW,202,7.6,7.6,70,0.00,,,0.00,VWS V14.01,2013-06-04 15:59:00,
2013-06-04 09:04:00,56.5,47.2,29.82,ESE,112,2.7,6.3,71,0.00,,,0.00,VWS V14.01,2013-06-04 16:04:00,
2013-06-04 09:09:00,56.8,47.5,29.82,SSW,202,3.6,4.0,71,0.00,,,0.00,VWS V14.01,2013-06-04 16:09:00,
2013-06-04 09:14:00,56.7,47.0,29.82,WSW,248,3.1,8.3,70,0.00,,,0.00,VWS V14.01,2013-06-04 16:14:00,
2013-06-04 09:19:00,56.7,47.0,29.82,SSW,202,3.1,3.1,70,0.00,,,0.00,VWS V14.01,2013-06-04 16:19:00,
2013-06-04 09:24:00,56.8,47.2,29.82,West,270,2.2,4.9,70,0.00,,,0.00,VWS V14.01,2013-06-04 16:24:00,
2013-06-04 09:30:00,57.4,46.9,29.82,SSW,202,2.7,2.7,68,0.00,,,0.00,VWS V14.01,2013-06-04 16:30:00,
2013-06-04 09:35:00,57.4,46.1,29.82,ESE,112,6.3,6.3,66,0.00,,,0.00,VWS V14.01,2013-06-04 16:35:00,
2013-06-04 09:40:00,57.6,46.3,29.82,SSE,158,0.0,3.1,66,0.00,,,0.00,VWS V14.01,2013-06-04 16:40:00,
2013-06-04 09:45:00,57.6,45.9,29.82,WSW,248,4.0,4.0,65,0.00,,,0.00,VWS V14.01,2013-06-04 16:45:00,
2013-06-04 09:50:00,57.7,46.1,29.82,SSE,158,4.9,5.4,65,0.00,,,0.00,VWS V14.01,2013-06-04 16:50:00,
2013-06-04 09:55:00,57.9,45.8,29.82,SSW,202,2.7,4.9,64,0.00,,,0.00,VWS V14.01,2013-06-04 16:55:00,
2013-06-04 10:01:00,57.9,45.4,29.82,SW,225,4.9,7.2,63,0.00,,,0.00,VWS V14.01,2013-06-04 17:01:00,
2013-06-04 10:06:00,57.6,45.5,29.82,SE,135,2.2,4.0,64,0.00,,,0.00,VWS V14.01,2013-06-04 17:06:00,
2013-06-04 10:11:00,57.9,46.2,29.82,ESE,112,2.2,3.6,65,0.00,,,0.00,VWS V14.01,2013-06-04 17:11:00,
2013-06-04 10:16:00,57.7,45.7,29.82,NNW,338,0.0,8.3,64,0.00,,,0.00,VWS V14.01,2013-06-04 17:16:00,
2013-06-04 10:21:00,57.9,45.8,29.82,WSW,248,2.7,4.0,64,0.00,,,0.00,VWS V14.01,2013-06-04 17:21:00,
2013-06-04 10:27:00,58.3,45.8,29.85,WNW,292,4.0,8.3,63,0.00,,,0.00,VWS V14.01,2013-06-04 17:27:00,
2013-06-04 10:32:00,58.5,45.9,29.85,South,180,4.9,5.4,63,0.00,,,0.00,VWS V14.01,2013-06-04 17:32:00,
2013-06-04 10:37:00,58.6,45.7,29.85,SSE,158,4.0,6.3,62,0.00,,,0.00,VWS V14.01,2013-06-04 17:37:00,
2013-06-04 10:42:00,59.0,45.2,29.85,WSW,248,4.0,4.9,60,0.00,,,0.00,VWS V14.01,2013-06-04 17:42:00,
2013-06-04 10:47:00,59.2,45.3,29.85,SSE,158,5.8,8.1,60,0.00,,,0.00,VWS V14.01,2013-06-04 17:47:00,
2013-06-04 10:52:00,59.4,45.0,29.85,NNE,22,2.7,2.7,59,0.00,,,0.00,VWS V14.01,2013-06-04 17:52:00,
2013-06-04 10:57:00,59.7,44.9,29.85,West,270,0.0,2.7,58,0.00,,,0.00,VWS V14.01,2013-06-04 17:57:00,
2013-06-04 11:03:00,60.1,44.8,29.85,WSW,248,3.1,4.0,57,0.00,,,0.00,VWS V14.01,2013-06-04 18:03:00,
2013-06-04 11:08:00,59.7,44.0,29.85,SW,225,2.7,10.5,56,0.00,,,0.00,VWS V14.01,2013-06-04 18:08:00,
2013-06-04 11:13:00,59.7,44.5,29.85,South,180,3.1,6.7,57,0.00,,,0.00,VWS V14.01,2013-06-04 18:13:00,
2013-06-04 11:18:00,59.4,44.1,29.85,South,180,3.6,4.9,57,0.00,,,0.00,VWS V14.01,2013-06-04 18:18:00,
2013-06-04 11:23:00,60.1,44.8,29.85,SSE,158,4.0,4.9,57,0.00,,,0.00,VWS V14.01,2013-06-04 18:23:00,
2013-06-04 11:28:00,60.4,44.7,29.85,SSW,202,3.1,3.6,56,0.00,,,0.00,VWS V14.01,2013-06-04 18:28:00,
2013-06-04 11:34:00,61.2,44.4,29.85,WSW,248,3.6,7.6,54,0.00,,,0.00,VWS V14.01,2013-06-04 18:34:00,
2013-06-04 11:39:00,61.9,44.1,29.85,South,180,4.9,6.3,52,0.00,,,0.00,VWS V14.01,2013-06-04 18:39:00,
2013-06-04 11:44:00,62.2,43.9,29.85,SSW,202,3.1,3.6,51,0.00,,,0.00,VWS V14.01,2013-06-04 18:44:00,
2013-06-04 11:49:00,62.8,43.9,29.85,SSW,202,6.3,6.3,50,0.00,,,0.00,VWS V14.01,2013-06-04 18:49:00,
2013-06-04 11:54:00,63.0,44.0,29.85,East,90,2.7,5.4,50,0.00,,,0.00,VWS V14.01,2013-06-04 18:54:00,
2013-06-04 11:59:00,63.0,43.5,29.85,South,180,5.8,5.8,49,0.00,,,0.00,VWS V14.01,2013-06-04 18:59:00,
2013-06-04 12:04:00,63.7,44.2,29.85,SSE,158,3.1,4.5,49,0.00,,,0.00,VWS V14.01,2013-06-04 19:04:00,
2013-06-04 12:09:00,64.8,44.1,29.85,SSW,202,4.0,5.4,47,0.00,,,0.00,VWS V14.01,2013-06-04 19:09:00,
2013-06-04 12:14:00,63.7,43.6,29.85,ESE,112,5.4,6.7,48,0.00,,,0.00,VWS V14.01,2013-06-04 19:14:00,
2013-06-04 12:19:00,63.9,43.8,29.85,SSW,202,7.2,7.2,48,0.00,,,0.00,VWS V14.01,2013-06-04 19:19:00,
2013-06-04 12:25:00,64.8,44.1,29.88,SSW,202,5.4,5.4,47,0.00,,,0.00,VWS V14.01,2013-06-04 19:25:00,
2013-06-04 12:30:00,63.5,42.9,29.88,SSW,202,4.0,6.3,47,0.00,,,0.00,VWS V14.01,2013-06-04 19:30:00,
2013-06-04 12:35:00,64.4,43.8,29.88,NW,315,3.6,5.4,47,0.00,,,0.00,VWS V14.01,2013-06-04 19:35:00,
2013-06-04 12:41:00,64.8,43.5,29.88,NNE,22,2.7,7.2,46,0.00,,,0.00,VWS V14.01,2013-06-04 19:41:00,
2013-06-04 12:46:00,63.9,43.3,29.88,SSW,202,4.0,4.0,47,0.00,,,0.00,VWS V14.01,2013-06-04 19:46:00,
2013-06-04 12:51:00,63.1,43.2,29.88,SSW,202,4.5,4.9,48,0.00,,,0.00,VWS V14.01,2013-06-04 19:51:00,
2013-06-04 12:57:00,63.0,43.5,29.85,SW,225,4.0,5.8,49,0.00,,,0.00,VWS V14.01,2013-06-04 19:57:00,
2013-06-04 13:02:00,63.3,43.8,29.85,SSE,158,3.1,7.2,49,0.00,,,0.00,VWS V14.01,2013-06-04 20:02:00,
2013-06-04 13:07:00,64.9,44.2,29.85,SSE,158,2.7,6.3,47,0.00,,,0.00,VWS V14.01,2013-06-04 20:07:00,
2013-06-04 13:12:00,65.3,44.0,29.85,SSE,158,4.9,5.4,46,0.00,,,0.00,VWS V14.01,2013-06-04 20:12:00,
2013-06-04 13:17:00,65.1,43.8,29.85,SSW,202,7.2,7.2,46,0.00,,,0.00,VWS V14.01,2013-06-04 20:17:00,
2013-06-04 13:22:00,64.8,43.5,29.85,SSE,158,4.0,8.7,46,0.00,,,0.00,VWS V14.01,2013-06-04 20:22:00,
2013-06-04 13:27:00,64.2,43.6,29.85,SSE,158,2.2,5.8,47,0.00,,,0.00,VWS V14.01,2013-06-04 20:27:00,
2013-06-04 13:32:00,64.6,43.9,29.85,SSE,158,3.6,8.7,47,0.00,,,0.00,VWS V14.01,2013-06-04 20:32:00,
2013-06-04 13:38:00,65.1,44.4,29.85,SSE,158,4.0,4.0,47,0.00,,,0.00,VWS V14.01,2013-06-04 20:38:00,
2013-06-04 13:43:00,64.8,43.5,29.85,WSW,248,2.7,5.8,46,0.00,,,0.00,VWS V14.01,2013-06-04 20:43:00,
2013-06-04 13:48:00,65.5,44.2,29.85,WSW,248,2.7,8.3,46,0.00,,,0.00,VWS V14.01,2013-06-04 20:48:00,
2013-06-04 13:53:00,65.7,44.3,29.85,South,180,5.8,8.7,46,0.00,,,0.00,VWS V14.01,2013-06-04 20:53:00,
2013-06-04 13:58:00,63.9,43.8,29.85,SSW,202,12.3,12.3,48,0.00,,,0.00,VWS V14.01,2013-06-04 20:58:00,
2013-06-04 14:03:00,64.4,43.8,29.85,SE,135,3.6,5.4,47,0.00,,,0.00,VWS V14.01,2013-06-04 21:03:00,
2013-06-04 14:09:00,65.1,44.4,29.85,SSE,158,2.7,5.4,47,0.00,,,0.00,VWS V14.01,2013-06-04 21:09:00,
2013-06-04 14:14:00,65.5,44.2,29.85,NW,315,3.1,6.3,46,0.00,,,0.00,VWS V14.01,2013-06-04 21:14:00,
2013-06-04 14:19:00,64.6,43.4,29.85,NW,315,2.7,5.4,46,0.00,,,0.00,VWS V14.01,2013-06-04 21:19:00,
2013-06-04 14:24:00,64.2,43.6,29.85,NE,45,5.4,5.4,47,0.00,,,0.00,VWS V14.01,2013-06-04 21:24:00,
2013-06-04 14:29:00,64.8,44.1,29.85,SSW,202,5.4,8.3,47,0.00,,,0.00,VWS V14.01,2013-06-04 21:29:00,
2013-06-04 14:34:00,63.9,43.8,29.85,SW,225,3.1,5.4,48,0.00,,,0.00,VWS V14.01,2013-06-04 21:34:00,
2013-06-04 14:40:00,63.7,44.2,29.85,ENE,68,3.6,3.6,49,0.00,,,0.00,VWS V14.01,2013-06-04 21:40:00,
2013-06-04 14:45:00,64.2,44.1,29.85,ESE,112,5.8,5.8,48,0.00,,,0.00,VWS V14.01,2013-06-04 21:45:00,
2013-06-04 14:50:00,64.4,43.8,29.85,SW,225,5.8,5.8,47,0.00,,,0.00,VWS V14.01,2013-06-04 21:50:00,
2013-06-04 14:55:00,64.2,44.1,29.85,NE,45,3.1,3.1,48,0.00,,,0.00,VWS V14.01,2013-06-04 21:55:00,
2013-06-04 15:01:00,62.6,43.2,29.85,West,270,4.0,4.0,49,0.00,,,0.00,VWS V14.01,2013-06-04 22:01:00,
2013-06-04 15:06:00,63.0,44.0,29.85,SSW,202,8.3,8.7,50,0.00,,,0.00,VWS V14.01,2013-06-04 22:06:00,
2013-06-04 15:11:00,62.4,44.1,29.88,South,180,3.6,6.3,51,0.00,,,0.00,VWS V14.01,2013-06-04 22:11:00,
2013-06-04 15:16:00,63.1,44.7,29.88,SE,135,3.1,3.1,51,0.00,,,0.00,VWS V14.01,2013-06-04 22:16:00,
2013-06-04 15:21:00,63.1,44.2,29.88,South,180,6.3,6.3,50,0.00,,,0.00,VWS V14.01,2013-06-04 22:21:00,
2013-06-04 15:26:00,63.0,44.0,29.85,SSW,202,5.4,8.3,50,0.00,,,0.00,VWS V14.01,2013-06-04 22:26:00,
2013-06-04 15:31:00,62.1,44.2,29.85,WSW,248,3.6,3.6,52,0.00,,,0.00,VWS V14.01,2013-06-04 22:31:00,
2013-06-04 15:37:00,62.4,44.1,29.85,SSE,158,3.6,4.9,51,0.00,,,0.00,VWS V14.01,2013-06-04 22:37:00,
2013-06-04 15:42:00,62.6,44.2,29.85,ENE,68,4.0,4.0,51,0.00,,,0.00,VWS V14.01,2013-06-04 22:42:00,
2013-06-04 15:47:00,62.8,44.4,29.85,SSE,158,0.0,3.1,51,0.00,,,0.00,VWS V14.01,2013-06-04 22:47:00,
2013-06-04 15:53:00,62.6,43.7,29.85,SSW,202,3.1,7.2,50,0.00,,,0.00,VWS V14.01,2013-06-04 22:53:00,
2013-06-04 15:58:00,62.8,43.9,29.85,WSW,248,6.7,8.3,50,0.00,,,0.00,VWS V14.01,2013-06-04 22:58:00,
2013-06-04 16:03:00,62.8,43.9,29.85,NE,45,3.1,6.3,50,0.00,,,0.00,VWS V14.01,2013-06-04 23:03:00,
2013-06-04 16:08:00,62.6,43.7,29.85,SW,225,8.7,8.7,50,0.00,,,0.00,VWS V14.01,2013-06-04 23:08:00,
2013-06-04 16:14:00,61.7,43.9,29.85,SE,135,8.3,8.3,52,0.00,,,0.00,VWS V14.01,2013-06-04 23:14:00,
2013-06-04 16:19:00,61.9,44.6,29.85,SW,225,4.9,4.9,53,0.00,,,0.00,VWS V14.01,2013-06-04 23:19:00,
2013-06-04 16:24:00,61.2,43.9,29.85,NNW,338,2.7,2.7,53,0.00,,,0.00,VWS V14.01,2013-06-04 23:24:00,
2013-06-04 16:29:00,61.3,44.6,29.85,WSW,248,6.3,7.2,54,0.00,,,0.00,VWS V14.01,2013-06-04 23:29:00,
2013-06-04 16:34:00,61.3,44.6,29.85,SSE,158,2.7,7.6,54,0.00,,,0.00,VWS V14.01,2013-06-04 23:34:00,
2013-06-04 16:39:00,61.3,44.6,29.85,ESE,112,7.6,8.3,54,0.00,,,0.00,VWS V14.01,2013-06-04 23:39:00,
2013-06-04 16:45:00,61.2,44.4,29.85,SSE,158,4.0,4.0,54,0.00,,,0.00,VWS V14.01,2013-06-04 23:45:00,
2013-06-04 16:50:00,61.7,44.9,29.85,SSW,202,3.6,4.0,54,0.00,,,0.00,VWS V14.01,2013-06-04 23:50:00,
2013-06-04 16:55:00,61.9,44.6,29.85,SE,135,4.0,6.3,53,0.00,,,0.00,VWS V14.01,2013-06-04 23:55:00,
2013-06-04 17:00:00,61.3,44.1,29.85,WSW,248,3.1,7.6,53,0.00,,,0.00,VWS V14.01,2013-06-05 00:00:00,
2013-06-04 17:05:00,62.1,44.2,29.85,SW,225,3.6,3.6,52,0.00,,,0.00,VWS V14.01,2013-06-05 00:05:00,
2013-06-04 17:10:00,63.1,44.2,29.85,SE,135,0.0,4.9,50,0.00,,,0.00,VWS V14.01,2013-06-05 00:10:00,
2013-06-04 17:15:00,63.1,43.7,29.85,SSE,158,4.0,5.4,49,0.00,,,0.00,VWS V14.01,2013-06-05 00:15:00,
2013-06-04 17:21:00,63.1,43.7,29.85,SSW,202,2.7,7.2,49,0.00,,,0.00,VWS V14.01,2013-06-05 00:21:00,
2013-06-04 17:26:00,63.0,43.5,29.85,North,0,3.1,4.0,49,0.00,,,0.00,VWS V14.01,2013-06-05 00:26:00,
2013-06-04 17:31:00,64.6,43.9,29.85,South,180,3.1,4.0,47,0.00,,,0.00,VWS V14.01,2013-06-05 00:31:00,
2013-06-04 17:36:00,64.4,43.2,29.85,SSE,158,5.8,5.8,46,0.00,,,0.00,VWS V14.01,2013-06-05 00:36:00,
2013-06-04 17:42:00,64.0,43.4,29.85,SSW,202,2.7,5.8,47,0.00,,,0.00,VWS V14.01,2013-06-05 00:42:00,
2013-06-04 17:47:00,63.5,42.9,29.85,SSW,202,3.6,4.9,47,0.00,,,0.00,VWS V14.01,2013-06-05 00:47:00,
2013-06-04 17:52:00,64.0,43.4,29.85,ESE,112,2.2,4.0,47,0.00,,,0.00,VWS V14.01,2013-06-05 00:52:00,
2013-06-04 17:57:00,63.9,43.3,29.85,SSE,158,2.7,3.1,47,0.00,,,0.00,VWS V14.01,2013-06-05 00:57:00,
2013-06-04 18:02:00,62.1,42.7,29.85,SSW,202,2.7,3.6,49,0.00,,,0.00,VWS V14.01,2013-06-05 01:02:00,
2013-06-04 18:08:00,61.9,43.1,29.85,WSW,248,3.1,3.1,50,0.00,,,0.00,VWS V14.01,2013-06-05 01:08:00,
2013-06-04 18:13:00,61.3,42.6,29.85,SSW,202,8.1,10.1,50,0.00,,,0.00,VWS V14.01,2013-06-05 01:13:00,
2013-06-04 18:18:00,60.1,42.9,29.85,SSE,158,0.0,6.3,53,0.00,,,0.00,VWS V14.01,2013-06-05 01:18:00,
2013-06-04 18:23:00,59.9,42.7,29.85,SSW,202,3.1,4.9,53,0.00,,,0.00,VWS V14.01,2013-06-05 01:23:00,
2013-06-04 18:29:00,60.1,43.4,29.85,WSW,248,7.6,7.6,54,0.00,,,0.00,VWS V14.01,2013-06-05 01:29:00,
2013-06-04 18:34:00,59.5,42.9,29.85,WSW,248,4.0,4.9,54,0.00,,,0.00,VWS V14.01,2013-06-05 01:34:00,
2013-06-04 18:40:00,59.7,43.5,29.85,SE,135,2.2,2.2,55,0.00,,,0.00,VWS V14.01,2013-06-05 01:40:00,
2013-06-04 18:45:00,59.2,43.0,29.85,South,180,4.9,4.9,55,0.00,,,0.00,VWS V14.01,2013-06-05 01:45:00,
2013-06-04 18:50:00,59.4,43.7,29.85,NNE,22,3.6,3.6,56,0.00,,,0.00,VWS V14.01,2013-06-05 01:50:00,
2013-06-04 18:55:00,59.0,43.3,29.85,WNW,292,4.0,4.9,56,0.00,,,0.00,VWS V14.01,2013-06-05 01:55:00,
2013-06-04 19:00:00,58.6,43.5,29.85,North,0,4.9,5.4,57,0.00,,,0.00,VWS V14.01,2013-06-05 02:00:00,
2013-06-04 19:06:00,58.6,43.5,29.85,SSE,158,4.0,4.9,57,0.00,,,0.00,VWS V14.01,2013-06-05 02:06:00,
2013-06-04 19:11:00,58.8,44.1,29.85,SSW,202,4.0,4.0,58,0.00,,,0.00,VWS V14.01,2013-06-05 02:11:00,
2013-06-04 19:17:00,58.6,43.9,29.85,South,180,5.8,5.8,58,0.00,,,0.00,VWS V14.01,2013-06-05 02:17:00,
2013-06-04 19:22:00,58.6,43.9,29.85,WSW,248,3.1,3.1,58,0.00,,,0.00,VWS V14.01,2013-06-05 02:22:00,
2013-06-04 19:27:00,58.3,43.6,29.85,ENE,68,4.0,4.9,58,0.00,,,0.00,VWS V14.01,2013-06-05 02:27:00,
2013-06-04 19:32:00,58.3,44.0,29.85,NW,315,4.0,4.9,59,0.00,,,0.00,VWS V14.01,2013-06-05 02:32:00,
2013-06-04 19:37:00,58.1,43.9,29.85,South,180,8.3,8.3,59,0.00,,,0.00,VWS V14.01,2013-06-05 02:37:00,
2013-06-04 19:42:00,57.7,44.0,29.85,SSW,202,8.1,8.1,60,0.00,,,0.00,VWS V14.01,2013-06-05 02:42:00,
2013-06-04 19:48:00,57.7,44.4,29.85,SSW,202,3.6,3.6,61,0.00,,,0.00,VWS V14.01,2013-06-05 02:48:00,
2013-06-04 19:53:00,57.9,44.6,29.85,South,180,8.7,8.7,61,0.00,,,0.00,VWS V14.01,2013-06-05 02:53:00,
2013-06-04 19:58:00,57.6,44.2,29.85,SSE,158,2.2,7.6,61,0.00,,,0.00,VWS V14.01,2013-06-05 02:58:00,
2013-06-04 20:03:00,57.6,44.2,29.85,ENE,68,2.2,4.0,61,0.00,,,0.00,VWS V14.01,2013-06-05 03:03:00,
2013-06-04 20:08:00,57.4,44.5,29.85,SW,225,2.7,3.6,62,0.00,,,0.00,VWS V14.01,2013-06-05 03:08:00,
2013-06-04 20:14:00,57.2,44.7,29.85,SSE,158,4.5,4.5,63,0.00,,,0.00,VWS V14.01,2013-06-05 03:14:00,
2013-06-04 20:19:00,57.2,44.7,29.85,SSW,202,3.6,5.4,63,0.00,,,0.00,VWS V14.01,2013-06-05 03:19:00,
2013-06-04 20:24:00,57.0,45.0,29.85,South,180,6.7,8.1,64,0.00,,,0.00,VWS V14.01,2013-06-05 03:24:00,
2013-06-04 20:30:00,57.0,45.0,29.85,SSW,202,2.7,4.0,64,0.00,,,0.00,VWS V14.01,2013-06-05 03:30:00,
2013-06-04 20:35:00,57.2,45.2,29.85,South,180,4.9,4.9,64,0.00,,,0.00,VWS V14.01,2013-06-05 03:35:00,
2013-06-04 20:40:00,57.2,45.2,29.85,SW,225,4.9,5.4,64,0.00,,,0.00,VWS V14.01,2013-06-05 03:40:00,
2013-06-04 20:46:00,57.2,44.7,29.85,SSE,158,2.7,3.6,63,0.00,,,0.00,VWS V14.01,2013-06-05 03:46:00,
2013-06-04 20:51:00,57.0,45.0,29.85,South,180,3.6,6.3,64,0.00,,,0.00,VWS V14.01,2013-06-05 03:51:00,
2013-06-04 20:56:00,57.2,45.2,29.85,ESE,112,3.6,4.0,64,0.00,,,0.00,VWS V14.01,2013-06-05 03:56:00,
2013-06-04 21:01:00,57.2,45.2,29.85,South,180,2.7,2.7,64,0.00,,,0.00,VWS V14.01,2013-06-05 04:01:00,
2013-06-04 21:02:00,57.2,45.2,29.85,SSW,202,3.6,4.9,64,0.00,,,0.00,VWS V14.01,2013-06-05 04:02:00,
2013-06-04 21:03:00,57.2,45.2,29.85,SW,225,4.5,5.8,64,0.00,,,0.00,VWS V14.01,2013-06-05 04:03:00,
2013-06-04 21:07:00,57.0,45.0,29.85,ESE,112,3.6,5.8,64,0.00,,,0.00,VWS V14.01,2013-06-05 04:07:00,
2013-06-04 21:13:00,57.0,45.0,29.85,West,270,3.6,4.0,64,0.00,,,0.00,VWS V14.01,2013-06-05 04:13:00,
2013-06-04 21:18:00,56.8,45.2,29.85,SSW,202,2.2,4.0,65,0.00,,,0.00,VWS V14.01,2013-06-05 04:18:00,
2013-06-04 21:23:00,56.8,45.2,29.85,ESE,112,3.1,3.6,65,0.00,,,0.00,VWS V14.01,2013-06-05 04:23:00,
2013-06-04 21:28:00,56.7,45.0,29.85,SSE,158,7.6,7.6,65,0.00,,,0.00,VWS V14.01,2013-06-05 04:28:00,
2013-06-04 21:33:00,56.7,45.0,29.85,WSW,248,2.7,3.1,65,0.00,,,0.00,VWS V14.01,2013-06-05 04:33:00,
2013-06-04 21:38:00,56.7,45.4,29.85,SSE,158,5.4,7.6,66,0.00,,,0.00,VWS V14.01,2013-06-05 04:38:00,
2013-06-04 21:43:00,56.5,45.3,29.85,SSW,202,3.6,5.4,66,0.00,,,0.00,VWS V14.01,2013-06-05 04:43:00,
2013-06-04 21:49:00,56.3,45.5,29.85,SW,225,4.0,4.0,67,0.00,,,0.00,VWS V14.01,2013-06-05 04:49:00,
2013-06-04 21:54:00,56.5,45.7,29.85,WSW,248,3.6,4.9,67,0.00,,,0.00,VWS V14.01,2013-06-05 04:54:00,
2013-06-04 21:59:00,56.3,45.5,29.85,SSW,202,2.7,2.7,67,0.00,,,0.00,VWS V14.01,2013-06-05 04:59:00,
2013-06-04 22:04:00,56.3,45.5,29.85,SW,225,4.9,6.3,67,0.00,,,0.00,VWS V14.01,2013-06-05 05:04:00,
2013-06-04 22:09:00,55.9,45.2,29.88,South,180,4.0,4.0,67,0.00,,,0.00,VWS V14.01,2013-06-05 05:09:00,
2013-06-04 22:15:00,55.9,45.5,29.88,ESE,112,2.2,3.6,68,0.00,,,0.00,VWS V14.01,2013-06-05 05:15:00,
2013-06-04 22:20:00,56.1,45.7,29.88,SSW,202,3.6,4.0,68,0.00,,,0.00,VWS V14.01,2013-06-05 05:20:00,
2013-06-04 22:25:00,56.1,45.7,29.85,SSE,158,2.2,2.7,68,0.00,,,0.00,VWS V14.01,2013-06-05 05:25:00,
2013-06-04 22:30:00,55.9,45.5,29.85,SSW,202,2.2,4.0,68,0.00,,,0.00,VWS V14.01,2013-06-05 05:30:00,
2013-06-04 22:35:00,55.9,45.5,29.85,SSE,158,7.2,7.2,68,0.00,,,0.00,VWS V14.01,2013-06-05 05:35:00,
2013-06-04 22:41:00,55.9,45.9,29.85,SSW,202,3.1,4.0,69,0.00,,,0.00,VWS V14.01,2013-06-05 05:41:00,
2013-06-04 22:46:00,55.9,45.9,29.85,SSW,202,4.9,4.9,69,0.00,,,0.00,VWS V14.01,2013-06-05 05:46:00,
2013-06-04 22:51:00,55.9,45.9,29.85,SSW,202,0.0,0.0,69,0.00,,,0.00,VWS V14.01,2013-06-05 05:51:00,
2013-06-04 22:56:00,55.8,45.8,29.88,SW,225,2.7,6.3,69,0.00,,,0.00,VWS V14.01,2013-06-05 05:56:00,
2013-06-04 23:02:00,55.9,45.9,29.88,SSW,202,3.6,4.0,69,0.00,,,0.00,VWS V14.01,2013-06-05 06:02:00,
2013-06-04 23:07:00,55.9,45.9,29.88,SSW,202,3.6,4.5,69,0.00,,,0.00,VWS V14.01,2013-06-05 06:07:00,
2013-06-04 23:13:00,55.9,45.9,29.88,SSE,158,3.6,3.6,69,0.00,,,0.00,VWS V14.01,2013-06-05 06:13:00,
2013-06-04 23:18:00,55.9,45.9,29.88,North,0,0.0,3.1,69,0.00,,,0.00,VWS V14.01,2013-06-05 06:18:00,
2013-06-04 23:23:00,55.9,45.9,29.88,WSW,248,5.4,5.4,69,0.00,,,0.00,VWS V14.01,2013-06-05 06:23:00,
2013-06-04 23:28:00,56.1,46.1,29.88,SSE,158,0.0,3.1,69,0.00,,,0.00,VWS V14.01,2013-06-05 06:28:00,
2013-06-04 23:33:00,55.9,45.9,29.88,SSW,202,3.1,5.4,69,0.00,,,0.00,VWS V14.01,2013-06-05 06:33:00,
2013-06-04 23:38:00,55.9,45.9,29.88,SSW,202,3.1,4.0,69,0.00,,,0.00,VWS V14.01,2013-06-05 06:38:00,
2013-06-04 23:43:00,56.1,46.1,29.88,WSW,248,0.0,0.0,69,0.00,,,0.00,VWS V14.01,2013-06-05 06:43:00,
2013-06-04 23:49:00,56.1,46.1,29.88,SW,225,0.0,0.0,69,0.00,,,0.00,VWS V14.01,2013-06-05 06:49:00,
2013-06-04 23:54:00,56.3,45.9,29.88,SSW,202,0.0,0.0,68,0.00,,,0.00,VWS V14.01,2013-06-05 06:54:00,
2013-06-04 23:59:00,56.3,45.9,29.88,SSW,202,2.2,2.7,68,0.00,,,0.00,VWS V14.01,2013-06-05 06:59:00,